Time,TemperatureF,DewpointF,PressureIn,WindDirection,WindDirectionDegrees,WindSpeedMPH,WindSpeedGustMPH,Humidity,HourlyPrecipIn,Conditions,Clouds,dailyrainin,SoftwareType,DateUTC
2013-06-02 00:06:00,51.3,13.0,29.75,West,281,1.0,-999.0,22,-99.99,,,0.00,weatherlink.com 1.10,2013-06-02 06:06:00,
2013-06-02 00:21:00,51.1,16.0,29.75,West,281,0.0,-999.0,25,-99.99,,,0.00,weatherlink.com 1.10,2013-06-02 06:21:00,
2013-06-02 00:36:00,51.1,13.0,29.72,West,281,0.0,-999.0,22,-99.99,,,0.00,weatherlink.com 1.10,2013-06-02 06:36:00,
2013-06-02 00:52:00,48.9,12.0,29.74,West,281,0.0,-999.0,23,-99.99,,,0.00,weatherlink.com 1.10,2013-06-02 06:52:00,
2013-06-02 01:07:00,47.3,16.0,29.75,West,281,0.0,-999.0,28,-99.99,,,0.00,weatherlink.com 1.10,2013-06-02 07:07:00,
2013-06-02 01:22:00,47.0,15.0,29.76,West,281,2.0,-999.0,28,-99.99,,,0.00,weatherlink.com 1.10,2013-06-02 07:22:00,
2013-06-02 01:37:00,46.5,16.0,29.74,West,281,1.0,-999.0,30,-99.99,,,0.00,weatherlink.com 1.10,2013-06-02 07:37:00,
2013-06-02 01:52:00,43.9,17.0,29.74,West,281,0.0,-999.0,34,-99.99,,,0.00,weatherlink.com 1.10,2013-06-02 07:52:00,
2013-06-02 02:07:00,45.2,15.0,29.74,NNE,32,2.0,-999.0,30,-99.99,,,0.00,weatherlink.com 1.10,2013-06-02 08:07:00,
2013-06-02 02:22:00,45.1,13.0,29.74,North,6,4.0,-999.0,27,-99.99,,,0.00,weatherlink.com 1.10,2013-06-02 08:22:00,
2013-06-02 02:37:00,45.8,13.0,29.73,North,6,2.0,-999.0,26,-99.99,,,0.00,weatherlink.com 1.10,2013-06-02 08:37:00,
2013-06-02 02:52:00,43.9,13.0,29.73,North,352,7.0,-999.0,28,-99.99,,,0.00,weatherlink.com 1.10,2013-06-02 08:52:00,
2013-06-02 03:07:00,43.6,11.0,29.74,North,1,9.0,-999.0,27,-99.99,,,0.00,weatherlink.com 1.10,2013-06-02 09:07:00,
2013-06-02 03:22:00,43.9,13.0,29.74,North,1,0.0,-999.0,29,-99.99,,,0.00,weatherlink.com 1.10,2013-06-02 09:22:00,
2013-06-02 03:37:00,42.1,13.0,29.74,NE,51,3.0,-999.0,31,-99.99,,,0.00,weatherlink.com 1.10,2013-06-02 09:37:00,
2013-06-02 03:52:00,43.1,12.0,29.74,NE,51,4.0,-999.0,28,-99.99,,,0.00,weatherlink.com 1.10,2013-06-02 09:52:00,
2013-06-02 04:07:00,42.9,14.0,29.75,North,359,2.0,-999.0,31,-99.99,,,0.00,weatherlink.com 1.10,2013-06-02 10:07:00,
2013-06-02 04:22:00,41.6,15.0,29.76,North,1,4.0,-999.0,34,-99.99,,,0.00,weatherlink.com 1.10,2013-06-02 10:22:00,
2013-06-02 04:37:00,41.2,15.0,29.75,North,10,0.0,-999.0,35,-99.99,,,0.00,weatherlink.com 1.10,2013-06-02 10:37:00,
2013-06-02 04:52:00,41.5,14.0,29.75,NE,36,4.0,-999.0,33,-99.99,,,0.00,weatherlink.com 1.10,2013-06-02 10:52:00,
2013-06-02 05:07:00,42.9,14.0,29.75,NE,47,3.0,-999.0,31,-99.99,,,0.00,weatherlink.com 1.10,2013-06-02 11:07:00,
2013-06-02 05:22:00,43.6,11.0,29.73,NE,47,6.0,-999.0,27,-99.99,,,0.00,weatherlink.com 1.10,2013-06-02 11:22:00,
2013-06-02 05:37:00,44.1,12.0,29.75,ENE,65,2.0,-999.0,27,-99.99,,,0.00,weatherlink.com 1.10,2013-06-02 11:37:00,
2013-06-02 05:52:00,43.3,16.0,29.75,North,5,5.0,-999.0,33,-99.99,,,0.00,weatherlink.com 1.10,2013-06-02 11:52:00,
2013-06-02 06:07:00,43.3,16.0,29.77,NNE,30,3.0,-999.0,33,-99.99,,,0.00,weatherlink.com 1.10,2013-06-02 12:07:00,
2013-06-02 06:23:00,44.2,17.0,29.75,NNE,15,2.0,-999.0,33,-99.99,,,0.00,weatherlink.com 1.10,2013-06-02 12:23:00,
2013-06-02 06:38:00,44.3,16.0,29.75,NE,37,4.0,-999.0,32,-99.99,,,0.00,weatherlink.com 1.10,2013-06-02 12:38:00,
2013-06-02 06:54:00,46.2,15.0,29.76,NNE,25,5.0,-999.0,28,-99.99,,,0.00,weatherlink.com 1.10,2013-06-02 12:54:00,
2013-06-02 07:09:00,48.3,16.0,29.75,NE,50,3.0,-999.0,27,-99.99,,,0.00,weatherlink.com 1.10,2013-06-02 13:09:00,
2013-06-02 07:22:00,50.7,18.0,29.73,NE,51,3.0,-999.0,27,-99.99,,,0.00,weatherlink.com 1.10,2013-06-02 13:22:00,
2013-06-02 07:38:00,53.6,19.0,29.73,NE,46,6.0,-999.0,26,-99.99,,,0.00,weatherlink.com 1.10,2013-06-02 13:38:00,
2013-06-02 07:53:00,57.6,24.0,29.72,NNE,28,3.0,-999.0,27,-99.99,,,0.00,weatherlink.com 1.10,2013-06-02 13:53:00,
2013-06-02 08:08:00,61.6,24.0,29.70,North,11,4.0,-999.0,24,-99.99,,,0.00,weatherlink.com 1.10,2013-06-02 14:08:00,
2013-06-02 08:24:00,66.6,25.0,29.68,ENE,77,5.0,-999.0,21,-99.99,,,0.00,weatherlink.com 1.10,2013-06-02 14:24:00,
2013-06-02 08:39:00,69.1,25.0,29.68,ENE,63,5.0,-999.0,19,-99.99,,,0.00,weatherlink.com 1.10,2013-06-02 14:39:00,
2013-06-02 08:53:00,69.8,26.0,29.68,ENE,67,7.0,-999.0,19,-99.99,,,0.00,weatherlink.com 1.10,2013-06-02 14:53:00,
2013-06-02 09:08:00,71.3,28.0,29.68,ENE,58,5.0,-999.0,20,-99.99,,,0.00,weatherlink.com 1.10,2013-06-02 15:08:00,
2013-06-02 09:24:00,70.9,25.0,29.67,ENE,73,4.0,-999.0,18,-99.99,,,0.00,weatherlink.com 1.10,2013-06-02 15:24:00,
2013-06-02 09:39:00,72.5,25.0,29.69,ENE,77,4.0,-999.0,17,-99.99,,,0.00,weatherlink.com 1.10,2013-06-02 15:39:00,
2013-06-02 09:54:00,72.7,27.0,29.69,ESE,108,6.0,-999.0,18,-99.99,,,0.00,weatherlink.com 1.10,2013-06-02 15:54:00,
2013-06-02 10:10:00,73.0,27.0,29.68,ENE,71,2.0,-999.0,18,-99.99,,,0.00,weatherlink.com 1.10,2013-06-02 16:10:00,
2013-06-02 10:25:00,74.7,28.0,29.66,NE,51,4.0,-999.0,18,-99.99,,,0.00,weatherlink.com 1.10,2013-06-02 16:25:00,
2013-06-02 10:39:00,76.0,29.0,29.71,East,80,4.0,-999.0,18,-99.99,,,0.00,weatherlink.com 1.10,2013-06-02 16:39:00,
2013-06-02 10:54:00,75.6,29.0,29.70,East,86,5.0,-999.0,18,-99.99,,,0.00,weatherlink.com 1.10,2013-06-02 16:54:00,
2013-06-02 11:09:00,77.2,29.0,29.69,SSE,156,4.0,-999.0,17,-99.99,,,0.00,weatherlink.com 1.10,2013-06-02 17:09:00,
2013-06-02 11:25:00,77.6,29.0,29.69,ENE,75,7.0,-999.0,17,-99.99,,,0.00,weatherlink.com 1.10,2013-06-02 17:25:00,
2013-06-02 11:40:00,78.1,28.0,29.68,SE,126,4.0,-999.0,16,-99.99,,,0.00,weatherlink.com 1.10,2013-06-02 17:40:00,
2013-06-02 11:56:00,79.8,30.0,29.68,SE,125,1.0,-999.0,16,-99.99,,,0.00,weatherlink.com 1.10,2013-06-02 17:56:00,
2013-06-02 12:09:00,80.1,28.0,29.66,ESE,103,4.0,-999.0,15,-99.99,,,0.00,weatherlink.com 1.10,2013-06-02 18:09:00,
2013-06-02 12:26:00,80.9,27.0,29.65,ENE,78,1.0,-999.0,14,-99.99,,,0.00,weatherlink.com 1.10,2013-06-02 18:26:00,
2013-06-02 12:41:00,81.6,26.0,29.67,ENE,77,0.0,-999.0,13,-99.99,,,0.00,weatherlink.com 1.10,2013-06-02 18:41:00,
2013-06-02 12:55:00,83.0,27.0,29.66,ESE,116,9.0,-999.0,13,-99.99,,,0.00,weatherlink.com 1.10,2013-06-02 18:55:00,
2013-06-02 13:10:00,82.2,25.0,29.65,NNW,345,0.0,-999.0,12,-99.99,,,0.00,weatherlink.com 1.10,2013-06-02 19:10:00,
2013-06-02 13:26:00,83.8,26.0,29.63,East,95,5.0,-999.0,12,-99.99,,,0.00,weatherlink.com 1.10,2013-06-02 19:26:00,
2013-06-02 13:41:00,84.1,26.0,29.63,NNE,18,0.0,-999.0,12,-99.99,,,0.00,weatherlink.com 1.10,2013-06-02 19:41:00,
2013-06-02 13:56:00,84.3,24.0,29.61,East,90,0.0,-999.0,11,-99.99,,,0.00,weatherlink.com 1.10,2013-06-02 19:56:00,
2013-06-02 14:10:00,85.9,21.0,29.61,WSW,247,0.0,-999.0,9,-99.99,,,0.00,weatherlink.com 1.10,2013-06-02 20:10:00,
2013-06-02 14:25:00,86.7,21.0,29.60,SW,230,3.0,-999.0,9,-99.99,,,0.00,weatherlink.com 1.10,2013-06-02 20:25:00,
2013-06-02 14:41:00,86.7,24.0,29.59,SSE,147,3.0,-999.0,10,-99.99,,,0.00,weatherlink.com 1.10,2013-06-02 20:41:00,
2013-06-02 14:56:00,87.0,22.0,29.58,South,188,1.0,-999.0,9,-99.99,,,0.00,weatherlink.com 1.10,2013-06-02 20:56:00,
2013-06-02 15:12:00,88.2,22.0,29.57,SSW,197,7.0,-999.0,9,-99.99,,,0.00,weatherlink.com 1.10,2013-06-02 21:12:00,
2013-06-02 15:27:00,88.0,20.0,29.56,WNW,302,5.0,-999.0,8,-99.99,,,0.00,weatherlink.com 1.10,2013-06-02 21:27:00,
2013-06-02 15:41:00,88.4,20.0,29.56,SSW,193,2.0,-999.0,8,-99.99,,,0.00,weatherlink.com 1.10,2013-06-02 21:41:00,
2013-06-02 15:57:00,88.0,22.0,29.55,SW,214,4.0,-999.0,9,-99.99,,,0.00,weatherlink.com 1.10,2013-06-02 21:57:00,
2013-06-02 16:12:00,86.1,23.0,29.56,SW,229,0.0,-999.0,10,-99.99,,,0.00,weatherlink.com 1.10,2013-06-02 22:12:00,
2013-06-02 16:26:00,85.7,23.0,29.55,West,278,4.0,-999.0,10,-99.99,,,0.00,weatherlink.com 1.10,2013-06-02 22:26:00,
2013-06-02 16:41:00,88.2,25.0,29.54,South,188,3.0,-999.0,10,-99.99,,,0.00,weatherlink.com 1.10,2013-06-02 22:41:00,
2013-06-02 16:57:00,88.4,23.0,29.51,SE,134,9.0,-999.0,9,-99.99,,,0.00,weatherlink.com 1.10,2013-06-02 22:57:00,
2013-06-02 17:12:00,88.2,22.0,29.51,SW,214,9.0,-999.0,9,-99.99,,,0.00,weatherlink.com 1.10,2013-06-02 23:12:00,
2013-06-02 17:27:00,88.2,22.0,29.51,South,176,5.0,-999.0,9,-99.99,,,0.00,weatherlink.com 1.10,2013-06-02 23:27:00,
2013-06-02 17:42:00,87.8,22.0,29.50,South,188,9.0,-999.0,9,-99.99,,,0.00,weatherlink.com 1.10,2013-06-02 23:42:00,
2013-06-02 17:58:00,87.8,22.0,29.48,South,171,5.0,-999.0,9,-99.99,,,0.00,weatherlink.com 1.10,2013-06-02 23:58:00,
2013-06-02 18:12:00,88.0,20.0,29.48,WSW,252,11.0,-999.0,8,-99.99,,,0.00,weatherlink.com 1.10,2013-06-03 00:12:00,
2013-06-02 18:27:00,85.7,18.0,29.48,West,267,13.0,-999.0,8,-99.99,,,0.00,weatherlink.com 1.10,2013-06-03 00:27:00,
2013-06-02 18:43:00,85.1,20.0,29.45,South,190,7.0,-999.0,9,-99.99,,,0.00,weatherlink.com 1.10,2013-06-03 00:43:00,
2013-06-02 18:57:00,84.3,22.0,29.46,SSW,205,6.0,-999.0,10,-99.99,,,0.00,weatherlink.com 1.10,2013-06-03 00:57:00,
2013-06-02 19:12:00,82.8,21.0,29.48,SW,235,5.0,-999.0,10,-99.99,,,0.00,weatherlink.com 1.10,2013-06-03 01:12:00,
2013-06-02 19:27:00,83.8,22.0,29.47,SW,234,13.0,-999.0,10,-99.99,,,0.00,weatherlink.com 1.10,2013-06-03 01:27:00,
2013-06-02 19:42:00,83.0,21.0,29.39,SW,232,10.0,-999.0,10,-99.99,,,0.00,weatherlink.com 1.10,2013-06-03 01:42:00,
2013-06-02 19:57:00,81.6,24.0,29.41,SSW,200,7.0,-999.0,12,-99.99,,,0.00,weatherlink.com 1.10,2013-06-03 01:57:00,
2013-06-02 20:12:00,80.1,23.0,29.42,SW,222,4.0,-999.0,12,-99.99,,,0.00,weatherlink.com 1.10,2013-06-03 02:12:00,
2013-06-02 20:27:00,79.8,25.0,29.42,SSW,208,3.0,-999.0,13,-99.99,,,0.00,weatherlink.com 1.10,2013-06-03 02:27:00,
2013-06-02 20:43:00,78.5,25.0,29.39,SW,214,0.0,-999.0,14,-99.99,,,0.00,weatherlink.com 1.10,2013-06-03 02:43:00,
2013-06-02 20:58:00,77.7,25.0,29.40,SW,214,0.0,-999.0,14,-99.99,,,0.00,weatherlink.com 1.10,2013-06-03 02:58:00,
2013-06-02 21:13:00,79.0,26.0,29.41,SW,220,0.0,-999.0,14,-99.99,,,0.00,weatherlink.com 1.10,2013-06-03 03:13:00,
2013-06-02 21:28:00,78.3,25.0,29.40,SSW,202,1.0,-999.0,14,-99.99,,,0.00,weatherlink.com 1.10,2013-06-03 03:28:00,
2013-06-02 21:43:00,77.0,26.0,29.38,SE,134,0.0,-999.0,15,-99.99,,,0.00,weatherlink.com 1.10,2013-06-03 03:43:00,
2013-06-02 21:58:00,73.5,27.0,29.40,North,359,3.0,-999.0,18,-99.99,,,0.00,weatherlink.com 1.10,2013-06-03 03:58:00,
2013-06-02 22:13:00,72.0,27.0,29.43,North,359,0.0,-999.0,19,-99.99,,,0.00,weatherlink.com 1.10,2013-06-03 04:13:00,
2013-06-02 22:28:00,74.4,27.0,29.44,North,359,0.0,-999.0,17,-99.99,,,0.00,weatherlink.com 1.10,2013-06-03 04:28:00,
2013-06-02 22:43:00,72.8,27.0,29.42,North,359,0.0,-999.0,18,-99.99,,,0.00,weatherlink.com 1.10,2013-06-03 04:43:00,
2013-06-02 22:58:00,69.8,27.0,29.43,North,359,0.0,-999.0,20,-99.99,,,0.00,weatherlink.com 1.10,2013-06-03 04:58:00,
2013-06-02 23:13:00,67.6,28.0,29.44,North,359,0.0,-999.0,23,-99.99,,,0.00,weatherlink.com 1.10,2013-06-03 05:13:00,
2013-06-02 23:28:00,65.6,29.0,29.45,North,359,0.0,-999.0,25,-99.99,,,0.00,weatherlink.com 1.10,2013-06-03 05:28:00,
2013-06-02 23:43:00,64.5,28.0,29.44,North,359,3.0,-999.0,25,-99.99,,,0.00,weatherlink.com 1.10,2013-06-03 05:43:00,
2013-06-02 23:58:00,65.6,28.0,29.45,North,359,0.0,-999.0,24,-99.99,,,0.00,weatherlink.com 1.10,2013-06-03 05:58:00,